College Station, TX

9:25 PM CDT on August 30, 2016 (GMT -0500)
Easterwood

Weather History for KCLL - April, 2013

Change the Weather History Date:

Wednesday, April 3, 2013

  Actual Average Record
Temperature  
Mean Temperature 57 °F 66 °F  
Max Temperature 63 °F 76 °F 90 °F (1939)
Min Temperature 50 °F 55 °F 30 °F (1987)
Degree Days  
Heating Degree Days 8 3  
Month to date heating degree days 8 9  
Since 1 July heating degree days 1256 1568  
Cooling Degree Days 0 3  
Month to date cooling degree days 10 9  
Year to date cooling degree days 103 96  
Growing Degree Days 6 (Base 50)    
Moisture  
Dew Point 52 °F    
Average Humidity 88    
Maximum Humidity 96    
Minimum Humidity 80    
Precipitation  
Precipitation 0.12 in 0.08 in 1.77 in (1922)
Month to date precipitation 0.88 0.25  
Year to date precipitation 8.77 9.51  
Sea Level Pressure  
Sea Level Pressure 29.98 in    
Wind  
Wind Speed 12 mph (North)    
Max Wind Speed 28 mph    
Max Gust Speed 35 mph    
Visibility 7 miles    
Events Rain    
T = Trace of Precipitation, MM = Missing Value Source: NWS Daily Summary

Daily Weather History Graph

Daily Weather History Graph

Search for Another Location

Airport or City:

Trip Planner

Search our weather history database for the weather conditions in past years. The results will help you decide how hot, cold, wet, or windy it might be!

Date:

Astronomy

Apr. 03, 2013 Rise Set
Actual Time 7:11 AM CDT 7:45 PM CDT
Civil Twilight 6:47 AM CDT 8:10 PM CDT
Nautical Twilight 6:19 AM CDT 8:38 PM CDT
Astronomical Twilight 5:50 AM CDT 9:07 PM CDT
Moon 2:27 AM CDT (4/3) 1:24 PM CDT (4/3)
Length of Visible Light 13h 22m
Length of Day
12h 34m
Last Quarter, 44% of the Moon is Illuminated
Apr 3
Last Quarter
Apr 10
New
Apr 18
First Quarter
Apr 25
Full
May 2
Last Quarter

Hourly Weather History & Observations

Time (CDT) Temp. Dew Point Humidity Pressure Visibility Wind Dir Wind Speed Gust Speed Precip Events Conditions
12:53 AM 60.1 °F 57.0 °F 90% 29.87 in 10.0 mi North 6.9 mph - N/A   Clear
1:53 AM 61.0 °F 57.9 °F 90% 29.94 in 10.0 mi West 12.7 mph - N/A   Overcast
2:53 AM 62.1 °F 60.1 °F 93% 29.96 in 8.0 mi West 6.9 mph - 0.02 in Rain Light Rain
3:09 AM 62.6 °F 59.0 °F 88% 29.96 in 10.0 mi WNW 6.9 mph - 0.00 in Rain Light Rain
3:53 AM 60.1 °F 57.9 °F 93% 29.90 in 6.0 mi North 6.9 mph - 0.07 in Rain Rain
4:53 AM 60.1 °F 57.9 °F 93% 29.68 in 9.0 mi ENE 24.2 mph 29.9 mph 0.01 in   Overcast
5:16 AM 59.0 °F 57.2 °F 94% 29.83 in 9.0 mi West 21.9 mph 34.5 mph 0.00 in   Scattered Clouds
5:23 AM 57.2 °F 57.2 °F 100% 29.85 in 8.0 mi WNW 21.9 mph 29.9 mph 0.00 in   Mostly Cloudy
5:44 AM 57.2 °F 55.4 °F 94% 29.91 in 5.0 mi WNW 15.0 mph 24.2 mph 0.00 in   Overcast
5:53 AM 57.9 °F 55.9 °F 93% 29.91 in 5.0 mi NW 13.8 mph 24.2 mph 0.00 in   Overcast
6:44 AM 55.4 °F 53.6 °F 94% 29.92 in 6.0 mi North 19.6 mph 28.8 mph 0.01 in   Overcast
6:53 AM 55.9 °F 54.0 °F 93% 29.92 in 7.0 mi North 19.6 mph 28.8 mph 0.01 in   Overcast
7:40 AM 55.4 °F 51.8 °F 88% 29.95 in 9.0 mi NNE 11.5 mph - N/A   Overcast
7:53 AM 55.0 °F 52.0 °F 89% 29.95 in 9.0 mi NE 10.4 mph - N/A   Overcast
8:14 AM 55.4 °F 51.8 °F 88% 29.95 in 10.0 mi NE 11.5 mph - N/A   Scattered Clouds
8:31 AM 53.6 °F 51.8 °F 94% 29.97 in 10.0 mi North 15.0 mph - N/A   Mostly Cloudy
8:53 AM 54.0 °F 50.0 °F 86% 29.99 in 10.0 mi North 12.7 mph - N/A   Overcast
9:53 AM 54.0 °F 48.9 °F 83% 30.02 in 10.0 mi NNE 12.7 mph - N/A   Overcast
10:53 AM 55.0 °F 50.0 °F 83% 30.01 in 10.0 mi NNE 12.7 mph - N/A   Overcast
11:53 AM 57.9 °F 51.1 °F 78% 30.00 in 10.0 mi NNE 12.7 mph - N/A   Overcast
12:53 PM 55.9 °F 50.0 °F 80% 29.96 in 10.0 mi NE 9.2 mph - N/A   Overcast
1:53 PM 55.9 °F 51.1 °F 84% 29.99 in 10.0 mi NNE 15.0 mph - 0.00 in Rain Light Rain
2:53 PM 55.0 °F 51.1 °F 86% 29.99 in 6.0 mi NE 10.4 mph 21.9 mph 0.00 in Rain Light Rain
3:53 PM 55.0 °F 51.1 °F 86% 29.96 in 7.0 mi NNE 9.2 mph 19.6 mph 0.00 in   Overcast
4:53 PM 54.0 °F 50.0 °F 86% 29.99 in 7.0 mi NNW 13.8 mph 21.9 mph 0.00 in   Overcast
5:07 PM 53.6 °F 50.0 °F 88% 30.00 in 5.0 mi North 16.1 mph - N/A   Overcast
5:53 PM 53.1 °F 50.0 °F 89% 29.99 in 5.0 mi North 11.5 mph - 0.01 in Rain Light Rain
6:17 PM 53.6 °F 51.8 °F 94% 30.02 in 2.0 mi North 11.5 mph - 0.00 in Rain Light Rain
6:45 PM 53.6 °F 50.0 °F 88% 30.03 in 3.0 mi North 12.7 mph - 0.00 in   Overcast
6:53 PM 52.0 °F 50.0 °F 93% 30.03 in 2.5 mi North 12.7 mph - 0.00 in   Overcast
7:13 PM 53.6 °F 50.0 °F 88% 30.04 in 4.0 mi North 9.2 mph - N/A   Overcast
7:36 PM 51.8 °F 50.0 °F 94% 30.06 in 4.0 mi NNW 8.1 mph - N/A   Overcast
7:53 PM 52.0 °F 50.0 °F 93% 30.05 in 4.0 mi NNW 9.2 mph - N/A   Overcast
8:53 PM 52.0 °F 50.0 °F 93% 30.06 in 3.0 mi North 10.4 mph - N/A   Overcast
9:53 PM 51.1 °F 48.9 °F 92% 30.09 in 4.0 mi NNW 9.2 mph - N/A   Overcast
10:22 PM 51.8 °F 48.2 °F 88% 30.10 in 7.0 mi North 10.4 mph - N/A   Overcast
10:53 PM 51.1 °F 48.0 °F 89% 30.10 in 9.0 mi North 9.2 mph - N/A   Overcast
11:05 PM 51.8 °F 48.2 °F 88% 30.10 in 8.0 mi North 10.4 mph - N/A   Overcast
11:22 PM 51.8 °F 48.2 °F 88% 30.11 in 8.0 mi North 8.1 mph - N/A   Overcast
11:53 PM 51.1 °F 48.0 °F 89% 30.11 in 7.0 mi North 9.2 mph - N/A   Overcast